Volver al catálogo

COSMOS 2216

ActivoMilitarPO
NORAD 22187·PAYLOAD·🇷🇺 Russia

Lanzado Oct 20, 1992 desde Plesetsk Cosmodrome

Loading…

Próximos Pases (próximas 24 horas)

TLE

ActualizadoSource: Space-Track

Época: Sep 14, 2026, 00:22 UTC

1 22187U 92068F   26257.01540425  .00000019  00000-0  47457-4 0  9999
2 22187  82.5924 287.2604 0004239 303.3101  56.7584 12.62587657562108

Sigue COSMOS 2216 en tiempo real con AllMySat

Download on the App Store